N24KM KMMU-KFLL

Flight info

Callsign N24KM
Flight time 2h 48m
Altitude 43000
Route ELVAE COL WHITE Q409 CRPLR EARZZ CHIEZ Y291 MAJIK CUUDA3
Aircraft C750/M-SBDE3FGHRWXY/S

Departure

Time 2026-05-03 20:52
Airport Morristown Municipal Airport (KMMU)

Arrival

Time 2026-05-03 23:41
Airport Fort Lauderdale Hollywood International Airport (KFLL)
Time Latitude Longitude Altitude Speed Heading
2026-05-03 20:30 40.79534 -74.42087 193 ft 0 kts 338°
2026-05-03 20:44 40.79523 -74.42081 186 ft 4 kts 323°
2026-05-03 20:44 40.79515 -74.42069 185 ft 4 kts 287°
2026-05-03 20:44 40.79514 -74.42057 196 ft 0 kts 238°
2026-05-03 20:47 40.79512 -74.42059 185 ft 1 kts 223°
2026-05-03 20:47 40.79482 -74.42074 185 ft 8 kts 176°
2026-05-03 20:48 40.79443 -74.42009 184 ft 11 kts 116°
2026-05-03 20:48 40.79487 -74.41937 183 ft 14 kts 37°
2026-05-03 20:48 40.79583 -74.41842 183 ft 20 kts 34°
2026-05-03 20:48 40.79707 -74.41724 182 ft 25 kts 36°
2026-05-03 20:49 40.79858 -74.41580 190 ft 28 kts 36°
2026-05-03 20:49 40.80028 -74.41415 187 ft 32 kts 36°
2026-05-03 20:49 40.80225 -74.41228 193 ft 37 kts 36°
2026-05-03 20:49 40.80440 -74.41021 188 ft 40 kts 36°
2026-05-03 20:50 40.80625 -74.40842 190 ft 17 kts 36°
2026-05-03 20:50 40.80690 -74.40767 195 ft 9 kts 79°
2026-05-03 20:50 40.80682 -74.40738 191 ft 0 kts 127°
2026-05-03 20:51 40.80662 -74.40704 190 ft 10 kts 128°
2026-05-03 20:51 40.80611 -74.40679 188 ft 9 kts 208°
2026-05-03 20:51 40.80591 -74.40699 187 ft 0 kts 219°
2026-05-03 20:52 40.80564 -74.40724 186 ft 24 kts 214°
2026-05-03 20:52 40.80137 -74.41129 183 ft 127 kts 216°
2026-05-03 20:52 40.79288 -74.41948 351 ft 164 kts 221°
2026-05-03 20:52 40.78301 -74.42826 891 ft 179 kts 211°
2026-05-03 20:53 40.77051 -74.43224 1503 ft 194 kts 189°
2026-05-03 20:53 40.75667 -74.43172 2081 ft 207 kts 173°
2026-05-03 20:53 40.74289 -74.42332 2611 ft 227 kts 150°
2026-05-03 20:53 40.73035 -74.41008 3351 ft 235 kts 142°
2026-05-03 20:54 40.71781 -74.39614 4303 ft 235 kts 143°
2026-05-03 20:54 40.68819 -74.37336 5458 ft 270 kts 161°
2026-05-03 20:54 40.67068 -74.36374 5940 ft 281 kts 156°
2026-05-03 20:55 40.65324 -74.35063 6081 ft 294 kts 151°
2026-05-03 20:55 40.63572 -74.33686 6006 ft 293 kts 153°
2026-05-03 20:55 40.61741 -74.32437 6400 ft 298 kts 157°
2026-05-03 20:55 40.59901 -74.31246 7530 ft 295 kts 156°
2026-05-03 20:56 40.58055 -74.29986 8474 ft 302 kts 154°
2026-05-03 20:56 40.56191 -74.28690 9458 ft 306 kts 154°
2026-05-03 20:56 40.54269 -74.27440 10231 ft 312 kts 159°
2026-05-03 20:56 40.52161 -74.26401 10438 ft 337 kts 162°
2026-05-03 20:57 40.49874 -74.25288 10509 ft 365 kts 162°
2026-05-03 20:57 40.47466 -74.24073 11058 ft 372 kts 161°
2026-05-03 20:57 40.45045 -74.22848 11762 ft 376 kts 162°
2026-05-03 20:57 40.42581 -74.21632 12430 ft 380 kts 162°
2026-05-03 20:58 40.40122 -74.20422 13116 ft 384 kts 162°
2026-05-03 20:58 40.37605 -74.19170 13786 ft 389 kts 162°
2026-05-03 20:58 40.35062 -74.17903 14371 ft 393 kts 162°
2026-05-03 20:58 40.32462 -74.16767 14859 ft 395 kts 172°
2026-05-03 20:59 40.29744 -74.16561 15439 ft 389 kts 188°
2026-05-03 20:59 40.27106 -74.17180 16033 ft 386 kts 199°
2026-05-03 20:59 40.24481 -74.17992 16645 ft 389 kts 199°
2026-05-03 20:59 40.21834 -74.18792 17318 ft 392 kts 199°
2026-05-03 21:00 40.19154 -74.19588 17901 ft 397 kts 199°
2026-05-03 21:00 40.17373 -74.20121 18390 ft 399 kts 200°
2026-05-03 21:00 40.13766 -74.21210 19139 ft 404 kts 200°
2026-05-03 21:00 40.11018 -74.22034 19762 ft 407 kts 200°
2026-05-03 21:01 40.08250 -74.22862 20388 ft 410 kts 200°
2026-05-03 21:01 40.05462 -74.23697 21033 ft 413 kts 200°
2026-05-03 21:01 40.02684 -74.24634 21595 ft 410 kts 206°
2026-05-03 21:01 40.00080 -74.26073 22229 ft 404 kts 214°
2026-05-03 21:02 39.97699 -74.27968 22795 ft 399 kts 223°
2026-05-03 21:02 39.95468 -74.30118 23380 ft 401 kts 224°
2026-05-03 21:02 39.93204 -74.32269 23898 ft 404 kts 224°
2026-05-03 21:02 39.90924 -74.34420 24406 ft 406 kts 224°
2026-05-03 21:03 39.88638 -74.36596 24909 ft 408 kts 224°
2026-05-03 21:03 39.86372 -74.38762 25408 ft 411 kts 224°
2026-05-03 21:03 39.84058 -74.40962 25902 ft 413 kts 224°
2026-05-03 21:03 39.81784 -74.43218 26481 ft 409 kts 227°
2026-05-03 21:04 39.79759 -74.45788 26987 ft 407 kts 233°
2026-05-03 21:04 39.77783 -74.48440 27503 ft 410 kts 232°
2026-05-03 21:04 39.75772 -74.51087 28021 ft 413 kts 232°
2026-05-03 21:04 39.73746 -74.53755 28542 ft 416 kts 232°
2026-05-03 21:05 39.71720 -74.56447 29049 ft 418 kts 232°
2026-05-03 21:05 39.69678 -74.59162 29538 ft 421 kts 232°
2026-05-03 21:05 39.67645 -74.61847 30017 ft 424 kts 232°
2026-05-03 21:05 39.65565 -74.64588 30419 ft 427 kts 232°
2026-05-03 21:06 39.63475 -74.67348 30816 ft 430 kts 232°
2026-05-03 21:06 39.61377 -74.70117 31340 ft 429 kts 231°
2026-05-03 21:06 39.59288 -74.72864 31949 ft 427 kts 231°
2026-05-03 21:06 39.57205 -74.75606 32520 ft 426 kts 232°
2026-05-03 21:07 39.55131 -74.78336 33104 ft 425 kts 232°
2026-05-03 21:07 39.53060 -74.81057 33701 ft 424 kts 231°
2026-05-03 21:07 39.50992 -74.83770 34235 ft 422 kts 231°
2026-05-03 21:07 39.48960 -74.86436 34710 ft 421 kts 231°
2026-05-03 21:08 39.46902 -74.89134 35179 ft 420 kts 231°
2026-05-03 21:08 39.44852 -74.91816 35698 ft 418 kts 231°
2026-05-03 21:08 39.42809 -74.94489 36194 ft 417 kts 231°
2026-05-03 21:08 39.40769 -74.97156 36700 ft 416 kts 231°
2026-05-03 21:09 39.38738 -74.99809 37214 ft 415 kts 231°
2026-05-03 21:09 39.36706 -75.02458 37733 ft 414 kts 231°
2026-05-03 21:09 39.34680 -75.05099 38258 ft 413 kts 231°
2026-05-03 21:09 39.32660 -75.07731 38746 ft 413 kts 230°
2026-05-03 21:10 39.30661 -75.10333 39087 ft 414 kts 230°
2026-05-03 21:10 39.28558 -75.12880 39416 ft 416 kts 227°
2026-05-03 21:10 39.26417 -75.15367 39925 ft 412 kts 227°
2026-05-03 21:10 39.24297 -75.17850 40346 ft 411 kts 227°
2026-05-03 21:11 39.22181 -75.20340 40725 ft 412 kts 227°
2026-05-03 21:11 39.20061 -75.22819 41105 ft 412 kts 227°
2026-05-03 21:11 39.17934 -75.25297 41496 ft 412 kts 227°
2026-05-03 21:11 39.15806 -75.27779 41882 ft 412 kts 227°
2026-05-03 21:12 39.13681 -75.30259 42260 ft 412 kts 227°
2026-05-03 21:12 39.11558 -75.32734 42640 ft 412 kts 227°
2026-05-03 21:12 39.09460 -75.35174 42976 ft 412 kts 227°
2026-05-03 21:12 39.07313 -75.37674 42996 ft 420 kts 227°
2026-05-03 21:13 39.04987 -75.40047 42997 ft 433 kts 220°
2026-05-03 21:13 39.02360 -75.42063 42998 ft 447 kts 213°
2026-05-03 21:13 38.99456 -75.43662 43014 ft 462 kts 206°
2026-05-03 21:13 38.96303 -75.44766 43014 ft 477 kts 198°
2026-05-03 21:14 38.92962 -75.45345 43028 ft 490 kts 193°
2026-05-03 21:14 38.89554 -75.45800 43040 ft 496 kts 193°
2026-05-03 21:14 38.82657 -75.46763 43038 ft 506 kts 193°
2026-05-03 21:15 38.75646 -75.47718 43038 ft 507 kts 193°
2026-05-03 21:15 38.68630 -75.48686 43034 ft 507 kts 193°
2026-05-03 21:16 38.61616 -75.49632 43043 ft 506 kts 193°
2026-05-03 21:16 38.54606 -75.50587 43046 ft 507 kts 193°
2026-05-03 21:17 38.48777 -75.51375 43042 ft 507 kts 193°
2026-05-03 21:17 38.40639 -75.52479 43044 ft 503 kts 194°
2026-05-03 21:18 38.33961 -75.54582 43042 ft 488 kts 207°
2026-05-03 21:18 38.28021 -75.58513 43040 ft 476 kts 219°
2026-05-03 21:19 38.22560 -75.63281 43033 ft 476 kts 220°
2026-05-03 21:19 38.17153 -75.67969 43059 ft 474 kts 220°
2026-05-03 21:20 38.11718 -75.72699 43063 ft 474 kts 220°
2026-05-03 21:20 38.06271 -75.77411 43063 ft 474 kts 220°
2026-05-03 21:21 38.00830 -75.82122 43071 ft 471 kts 220°
2026-05-03 21:21 37.95464 -75.86754 43064 ft 470 kts 220°
2026-05-03 21:22 37.90053 -75.91419 43064 ft 470 kts 220°
2026-05-03 21:22 37.84642 -75.96074 43060 ft 470 kts 220°
2026-05-03 21:23 37.79231 -76.00720 43065 ft 468 kts 220°
2026-05-03 21:23 37.73882 -76.05307 43063 ft 468 kts 220°
2026-05-03 21:24 37.68495 -76.09916 43066 ft 468 kts 220°
2026-05-03 21:24 37.63089 -76.14509 43072 ft 469 kts 219°
2026-05-03 21:25 37.57106 -76.18088 43073 ft 484 kts 206°
2026-05-03 21:25 37.50735 -76.20721 43091 ft 485 kts 206°
2026-05-03 21:26 37.44329 -76.23399 43095 ft 485 kts 206°
2026-05-03 21:26 37.37908 -76.26046 43056 ft 485 kts 206°
2026-05-03 21:27 37.31511 -76.28699 43085 ft 484 kts 206°
2026-05-03 21:27 37.25150 -76.31321 43070 ft 484 kts 206°
2026-05-03 21:28 37.18749 -76.33961 43065 ft 484 kts 206°
2026-05-03 21:28 37.12357 -76.36588 43063 ft 483 kts 206°
2026-05-03 21:29 37.05967 -76.39214 43067 ft 483 kts 206°
2026-05-03 21:29 36.99573 -76.41834 43068 ft 483 kts 206°
2026-05-03 21:30 36.93226 -76.44431 43046 ft 483 kts 206°
2026-05-03 21:30 36.86855 -76.47032 43084 ft 482 kts 206°
2026-05-03 21:31 36.80482 -76.49632 43087 ft 482 kts 206°
2026-05-03 21:31 36.74102 -76.52228 43085 ft 483 kts 206°
2026-05-03 21:32 36.67722 -76.54819 43090 ft 481 kts 206°
2026-05-03 21:32 36.61404 -76.57383 43091 ft 481 kts 206°
2026-05-03 21:33 36.55042 -76.59958 43090 ft 481 kts 206°
2026-05-03 21:33 36.48676 -76.62532 43089 ft 481 kts 206°
2026-05-03 21:34 36.42343 -76.65084 43089 ft 477 kts 206°
2026-05-03 21:34 36.36023 -76.67634 43094 ft 478 kts 206°
2026-05-03 21:35 36.29745 -76.70156 43091 ft 478 kts 206°
2026-05-03 21:35 36.23425 -76.72694 43081 ft 476 kts 206°
2026-05-03 21:36 36.17141 -76.75211 43096 ft 474 kts 206°
2026-05-03 21:36 36.10862 -76.77725 43090 ft 475 kts 206°
2026-05-03 21:37 36.04574 -76.80235 43092 ft 474 kts 206°
2026-05-03 21:37 35.98351 -76.82715 43093 ft 471 kts 206°
2026-05-03 21:38 35.92116 -76.85200 43099 ft 471 kts 206°
2026-05-03 21:38 35.86078 -76.88138 43106 ft 468 kts 210°
2026-05-03 21:39 35.80027 -76.91128 43109 ft 468 kts 210°
2026-05-03 21:39 35.74010 -76.94145 43108 ft 465 kts 210°
2026-05-03 21:40 35.68037 -76.97113 43103 ft 466 kts 210°
2026-05-03 21:40 35.62024 -77.00105 43103 ft 466 kts 210°
2026-05-03 21:41 35.56012 -77.03088 43103 ft 466 kts 210°
2026-05-03 21:41 35.50014 -77.06059 43100 ft 463 kts 210°
2026-05-03 21:42 35.44072 -77.09002 43098 ft 464 kts 210°
2026-05-03 21:42 35.38084 -77.11958 43099 ft 464 kts 210°
2026-05-03 21:43 35.32093 -77.14913 43104 ft 464 kts 210°
2026-05-03 21:43 35.26098 -77.17865 43104 ft 464 kts 210°
2026-05-03 21:44 35.20110 -77.20809 43105 ft 464 kts 210°
2026-05-03 21:44 35.14157 -77.23731 43110 ft 465 kts 210°
2026-05-03 21:45 35.08134 -77.26682 43113 ft 466 kts 210°
2026-05-03 21:45 35.02140 -77.29613 43106 ft 463 kts 210°
2026-05-03 21:46 34.96153 -77.32541 43105 ft 464 kts 210°
2026-05-03 21:46 34.90196 -77.35444 43098 ft 464 kts 210°
2026-05-03 21:47 34.84204 -77.38363 43062 ft 464 kts 210°
2026-05-03 21:47 34.78249 -77.41255 43092 ft 460 kts 210°
2026-05-03 21:48 34.72302 -77.44146 43093 ft 460 kts 210°
2026-05-03 21:48 34.66347 -77.47029 43095 ft 461 kts 210°
2026-05-03 21:49 34.60432 -77.49893 43095 ft 461 kts 210°
2026-05-03 21:49 34.54492 -77.52761 43096 ft 459 kts 210°
2026-05-03 21:50 34.48240 -77.54849 43103 ft 474 kts 200°
2026-05-03 21:50 34.41745 -77.56273 43122 ft 474 kts 200°
2026-05-03 21:51 34.35258 -77.57717 43064 ft 474 kts 200°
2026-05-03 21:51 34.28806 -77.59130 43115 ft 471 kts 200°
2026-05-03 21:52 34.22364 -77.60561 43120 ft 477 kts 200°
2026-05-03 21:52 34.15817 -77.61987 43125 ft 479 kts 200°
2026-05-03 21:53 34.09266 -77.63432 43113 ft 477 kts 200°
2026-05-03 21:53 34.02757 -77.64855 43123 ft 476 kts 200°
2026-05-03 21:54 33.96242 -77.66283 43121 ft 476 kts 200°
2026-05-03 21:54 33.89721 -77.67706 43119 ft 476 kts 200°
2026-05-03 21:55 33.83207 -77.69127 43132 ft 474 kts 200°
2026-05-03 21:55 33.76755 -77.70533 43140 ft 475 kts 200°
2026-05-03 21:56 33.70253 -77.71945 43144 ft 475 kts 200°
2026-05-03 21:56 33.63923 -77.73841 43138 ft 467 kts 205°
2026-05-03 21:57 33.57646 -77.75868 43139 ft 466 kts 205°
2026-05-03 21:57 33.51400 -77.77922 43141 ft 466 kts 205°
2026-05-03 21:58 33.45141 -77.79957 43144 ft 466 kts 205°
2026-05-03 21:58 33.38932 -77.81982 43146 ft 466 kts 205°
2026-05-03 21:59 33.32685 -77.84012 43144 ft 463 kts 205°
2026-05-03 21:59 33.26466 -77.86034 43148 ft 464 kts 205°
2026-05-03 22:00 33.20238 -77.88051 43152 ft 464 kts 205°
2026-05-03 22:00 33.14013 -77.90067 43147 ft 463 kts 205°
2026-05-03 22:01 33.07830 -77.92066 43138 ft 462 kts 205°
2026-05-03 22:01 33.01632 -77.94089 43146 ft 461 kts 206°
2026-05-03 22:02 32.95488 -77.96247 43149 ft 461 kts 206°
2026-05-03 22:02 32.89307 -77.98331 43143 ft 461 kts 205°
2026-05-03 22:03 32.83144 -78.00451 43138 ft 461 kts 206°
2026-05-03 22:03 32.76970 -78.02549 43137 ft 461 kts 206°
2026-05-03 22:04 32.70801 -78.04651 43138 ft 461 kts 206°
2026-05-03 22:04 32.64669 -78.06735 43138 ft 461 kts 206°
2026-05-03 22:05 32.58496 -78.08831 43088 ft 461 kts 206°
2026-05-03 22:05 32.52333 -78.10920 43150 ft 461 kts 206°
2026-05-03 22:06 32.46164 -78.13007 43145 ft 461 kts 206°
2026-05-03 22:06 32.40004 -78.15091 43147 ft 461 kts 206°
2026-05-03 22:07 32.33834 -78.17172 43145 ft 461 kts 206°
2026-05-03 22:07 32.27714 -78.19235 43139 ft 460 kts 206°
2026-05-03 22:08 32.21553 -78.21309 43138 ft 460 kts 206°
2026-05-03 22:08 32.15397 -78.23378 43139 ft 460 kts 206°
2026-05-03 22:09 32.09235 -78.25446 43144 ft 460 kts 206°
2026-05-03 22:10 31.99998 -78.28541 43135 ft 460 kts 206°
2026-05-03 22:10 31.93887 -78.30584 43135 ft 460 kts 206°
2026-05-03 22:11 31.87738 -78.32638 43144 ft 460 kts 206°
2026-05-03 22:11 31.81574 -78.34694 43146 ft 460 kts 206°
2026-05-03 22:12 31.75425 -78.36741 43132 ft 459 kts 206°
2026-05-03 22:12 31.69277 -78.38787 43129 ft 459 kts 206°
2026-05-03 22:13 31.63127 -78.40830 43128 ft 459 kts 206°
2026-05-03 22:13 31.57022 -78.42855 43137 ft 460 kts 206°
2026-05-03 22:14 31.50872 -78.44889 43134 ft 459 kts 206°
2026-05-03 22:14 31.44708 -78.46882 43141 ft 460 kts 206°
2026-05-03 22:15 31.38549 -78.48883 43129 ft 459 kts 206°
2026-05-03 22:15 31.32393 -78.50878 43126 ft 459 kts 206°
2026-05-03 22:16 31.27272 -78.52533 43100 ft 459 kts 206°
2026-05-03 22:16 31.20113 -78.54849 43127 ft 460 kts 206°
2026-05-03 22:17 31.13946 -78.56838 43127 ft 460 kts 206°
2026-05-03 22:17 31.08819 -78.58491 43124 ft 460 kts 206°
2026-05-03 22:18 31.02651 -78.60476 43131 ft 460 kts 206°
2026-05-03 22:18 30.96484 -78.62459 43125 ft 461 kts 206°
2026-05-03 22:19 30.90306 -78.64442 43122 ft 460 kts 206°
2026-05-03 22:19 30.84128 -78.66421 43122 ft 461 kts 206°
2026-05-03 22:20 30.77946 -78.68401 43131 ft 461 kts 206°
2026-05-03 22:20 30.71785 -78.70370 43118 ft 459 kts 206°
2026-05-03 22:21 30.65655 -78.72331 43125 ft 460 kts 206°
2026-05-03 22:21 30.59475 -78.74298 43129 ft 460 kts 206°
2026-05-03 22:22 30.53298 -78.76267 43123 ft 460 kts 206°
2026-05-03 22:22 30.47116 -78.78232 43086 ft 460 kts 206°
2026-05-03 22:23 30.40926 -78.80201 43114 ft 462 kts 206°
2026-05-03 22:23 30.34764 -78.82153 43121 ft 462 kts 206°
2026-05-03 22:24 30.28561 -78.84118 43117 ft 462 kts 206°
2026-05-03 22:24 30.22357 -78.86081 43119 ft 462 kts 206°
2026-05-03 22:25 30.16156 -78.88041 43117 ft 462 kts 206°
2026-05-03 22:25 30.09958 -78.89999 43110 ft 462 kts 206°
2026-05-03 22:26 30.03756 -78.91954 43107 ft 462 kts 206°
2026-05-03 22:26 29.97554 -78.93907 43112 ft 462 kts 206°
2026-05-03 22:27 29.91391 -78.95843 43109 ft 461 kts 206°
2026-05-03 22:27 29.85188 -78.97795 43108 ft 462 kts 206°
2026-05-03 22:28 29.78906 -78.99536 43098 ft 472 kts 200°
2026-05-03 22:28 29.72418 -79.00719 43105 ft 472 kts 200°
2026-05-03 22:29 29.65937 -79.01933 43106 ft 472 kts 200°
2026-05-03 22:29 29.59457 -79.03119 43095 ft 471 kts 200°
2026-05-03 22:30 29.52985 -79.04319 43099 ft 471 kts 200°
2026-05-03 22:30 29.46503 -79.05508 43102 ft 472 kts 200°
2026-05-03 22:31 29.40068 -79.06693 43097 ft 471 kts 200°
2026-05-03 22:31 29.33593 -79.07881 43097 ft 471 kts 200°
2026-05-03 22:32 29.27114 -79.09070 43091 ft 471 kts 200°
2026-05-03 22:32 29.20634 -79.10256 43092 ft 472 kts 200°
2026-05-03 22:33 29.14151 -79.11441 43094 ft 472 kts 200°
2026-05-03 22:33 29.07676 -79.12624 43076 ft 470 kts 200°
2026-05-03 22:34 29.01248 -79.13799 43090 ft 471 kts 200°
2026-05-03 22:34 28.94767 -79.14977 43088 ft 471 kts 200°
2026-05-03 22:35 28.88288 -79.16158 43081 ft 471 kts 200°
2026-05-03 22:35 28.81814 -79.17334 43081 ft 471 kts 200°
2026-05-03 22:36 28.75352 -79.18507 43068 ft 469 kts 200°
2026-05-03 22:36 28.68944 -79.19670 43065 ft 470 kts 200°
2026-05-03 22:37 28.62488 -79.20838 43067 ft 470 kts 200°
2026-05-03 22:37 28.56031 -79.22007 43064 ft 470 kts 200°
2026-05-03 22:38 28.49582 -79.23171 43066 ft 469 kts 200°
2026-05-03 22:38 28.43138 -79.24335 43068 ft 469 kts 200°
2026-05-03 22:39 28.36733 -79.25488 43070 ft 469 kts 200°
2026-05-03 22:39 28.30393 -79.26927 43058 ft 458 kts 207°
2026-05-03 22:40 28.24271 -79.28932 43070 ft 459 kts 206°
2026-05-03 22:40 28.18135 -79.30910 43062 ft 459 kts 206°
2026-05-03 22:40 28.15092 -79.31900 42780 ft 448 kts 206°
2026-05-03 22:41 28.12139 -79.32846 42188 ft 433 kts 206°
2026-05-03 22:41 28.09298 -79.33761 41627 ft 417 kts 206°
2026-05-03 22:41 28.06596 -79.34642 41094 ft 403 kts 207°
2026-05-03 22:41 28.03944 -79.35505 40572 ft 391 kts 207°
2026-05-03 22:42 28.01351 -79.36346 40058 ft 385 kts 206°
2026-05-03 22:42 27.98785 -79.37180 39555 ft 384 kts 206°
2026-05-03 22:42 27.96208 -79.38016 39051 ft 386 kts 206°
2026-05-03 22:42 27.93619 -79.38851 38510 ft 390 kts 205°
2026-05-03 22:43 27.90991 -79.39700 37985 ft 394 kts 205°
2026-05-03 22:43 27.88350 -79.40550 37458 ft 395 kts 205°
2026-05-03 22:43 27.85700 -79.41403 36934 ft 397 kts 205°
2026-05-03 22:43 27.83033 -79.42263 36408 ft 399 kts 205°
2026-05-03 22:44 27.80354 -79.43126 35885 ft 401 kts 205°
2026-05-03 22:44 27.77673 -79.43988 35349 ft 402 kts 205°
2026-05-03 22:44 27.74978 -79.44857 34817 ft 404 kts 205°
2026-05-03 22:44 27.72269 -79.45729 34281 ft 406 kts 205°
2026-05-03 22:45 27.69546 -79.46603 33713 ft 408 kts 205°
2026-05-03 22:45 27.66842 -79.47472 33185 ft 411 kts 204°
2026-05-03 22:45 27.64095 -79.48354 32636 ft 413 kts 204°
2026-05-03 22:45 27.61317 -79.49246 32087 ft 416 kts 203°
2026-05-03 22:46 27.58522 -79.50142 31535 ft 419 kts 203°
2026-05-03 22:46 27.55705 -79.51045 30979 ft 422 kts 203°
2026-05-03 22:46 27.52868 -79.51955 30421 ft 425 kts 202°
2026-05-03 22:46 27.50034 -79.52859 29825 ft 421 kts 202°
2026-05-03 22:47 27.47228 -79.53754 29271 ft 418 kts 202°
2026-05-03 22:47 27.44453 -79.54652 28746 ft 407 kts 203°
2026-05-03 22:47 27.41814 -79.55543 28212 ft 389 kts 203°
2026-05-03 22:47 27.39238 -79.56317 28028 ft 382 kts 201°
2026-05-03 22:48 27.36662 -79.57090 28028 ft 382 kts 202°
2026-05-03 22:48 27.34097 -79.57917 27678 ft 381 kts 203°
2026-05-03 22:48 27.31588 -79.58729 27136 ft 379 kts 202°
2026-05-03 22:48 27.29054 -79.59522 26572 ft 376 kts 202°
2026-05-03 22:49 27.26541 -79.60302 26019 ft 374 kts 202°
2026-05-03 22:49 27.24029 -79.61039 25451 ft 376 kts 198°
2026-05-03 22:49 27.21360 -79.60910 24817 ft 398 kts 175°
2026-05-03 22:49 27.18821 -79.59521 24210 ft 419 kts 152°
2026-05-03 22:50 27.16727 -79.57190 23694 ft 428 kts 138°
2026-05-03 22:50 27.14888 -79.54552 23153 ft 429 kts 134°
2026-05-03 22:50 27.13144 -79.51853 22595 ft 426 kts 133°
2026-05-03 22:50 27.11437 -79.49154 22031 ft 422 kts 132°
2026-05-03 22:51 27.09752 -79.46480 21471 ft 418 kts 132°
2026-05-03 22:51 27.08081 -79.43833 20903 ft 413 kts 132°
2026-05-03 22:51 27.06423 -79.41218 20315 ft 409 kts 131°
2026-05-03 22:51 27.04766 -79.38644 19772 ft 405 kts 131°
2026-05-03 22:52 27.03111 -79.36108 19240 ft 401 kts 132°
2026-05-03 22:52 27.01486 -79.33630 18725 ft 397 kts 132°
2026-05-03 22:52 26.99853 -79.31151 18189 ft 393 kts 132°
2026-05-03 22:52 26.98229 -79.28699 17594 ft 390 kts 132°
2026-05-03 22:53 26.96620 -79.26280 17013 ft 386 kts 132°
2026-05-03 22:53 26.95008 -79.23874 16452 ft 385 kts 132°
2026-05-03 22:53 26.93410 -79.21487 15878 ft 379 kts 132°
2026-05-03 22:53 26.91842 -79.19149 15336 ft 373 kts 131°
2026-05-03 22:54 26.90286 -79.16844 14790 ft 368 kts 132°
2026-05-03 22:54 26.88750 -79.14571 14250 ft 365 kts 131°
2026-05-03 22:54 26.87212 -79.12315 13707 ft 363 kts 131°
2026-05-03 22:54 26.85682 -79.10085 13119 ft 360 kts 131°
2026-05-03 22:55 26.84150 -79.07869 12545 ft 369 kts 131°
2026-05-03 22:55 26.82519 -79.05636 11942 ft 366 kts 138°
2026-05-03 22:55 26.80502 -79.04199 11271 ft 337 kts 165°
2026-05-03 22:55 26.78276 -79.03921 10647 ft 312 kts 187°
2026-05-03 22:56 26.76196 -79.04290 10129 ft 294 kts 200°
2026-05-03 22:56 26.74377 -79.05140 10015 ft 278 kts 212°
2026-05-03 22:56 26.72743 -79.06266 10034 ft 276 kts 216°
2026-05-03 22:56 26.71117 -79.07393 10029 ft 276 kts 214°
2026-05-03 22:57 26.69427 -79.08412 10026 ft 277 kts 211°
2026-05-03 22:57 26.67725 -79.09401 10028 ft 275 kts 212°
2026-05-03 22:57 26.66039 -79.10426 10027 ft 276 kts 212°
2026-05-03 22:57 26.64359 -79.11461 10027 ft 276 kts 212°
2026-05-03 22:58 26.62673 -79.12486 10026 ft 276 kts 212°
2026-05-03 22:58 26.61007 -79.13494 10031 ft 276 kts 212°
2026-05-03 22:58 26.59315 -79.14521 10029 ft 276 kts 212°
2026-05-03 22:58 26.57626 -79.15546 10029 ft 277 kts 212°
2026-05-03 22:59 26.55936 -79.16572 10029 ft 276 kts 212°
2026-05-03 22:59 26.54247 -79.17596 10028 ft 276 kts 212°
2026-05-03 22:59 26.52558 -79.18620 10029 ft 276 kts 212°
2026-05-03 22:59 26.50869 -79.19644 10029 ft 276 kts 212°
2026-05-03 23:00 26.49179 -79.20667 10029 ft 276 kts 212°
2026-05-03 23:00 26.47494 -79.21688 10029 ft 276 kts 212°
2026-05-03 23:00 26.45812 -79.22716 10014 ft 276 kts 212°
2026-05-03 23:00 26.44126 -79.23744 10020 ft 276 kts 212°
2026-05-03 23:01 26.42437 -79.24763 10019 ft 277 kts 212°
2026-05-03 23:01 26.40767 -79.25770 10020 ft 276 kts 212°
2026-05-03 23:01 26.39078 -79.26792 10020 ft 276 kts 212°
2026-05-03 23:01 26.37388 -79.27813 10020 ft 276 kts 212°
2026-05-03 23:02 26.35698 -79.28834 10023 ft 276 kts 212°
2026-05-03 23:02 26.34010 -79.29853 10023 ft 276 kts 212°
2026-05-03 23:02 26.32321 -79.30872 10024 ft 276 kts 212°
2026-05-03 23:02 26.30625 -79.31887 10020 ft 276 kts 210°
2026-05-03 23:03 26.28720 -79.32278 9961 ft 289 kts 179°
2026-05-03 23:03 26.26802 -79.31540 10020 ft 297 kts 158°
2026-05-03 23:03 26.24985 -79.30423 10043 ft 299 kts 155°
2026-05-03 23:03 26.23189 -79.29258 10038 ft 299 kts 154°
2026-05-03 23:04 26.21418 -79.28102 10035 ft 299 kts 154°
2026-05-03 23:04 26.19625 -79.26932 10030 ft 299 kts 154°
2026-05-03 23:04 26.17832 -79.25761 10028 ft 299 kts 154°
2026-05-03 23:04 26.16039 -79.24589 10020 ft 299 kts 154°
2026-05-03 23:05 26.14240 -79.23417 10018 ft 299 kts 154°
2026-05-03 23:05 26.12360 -79.22473 10001 ft 293 kts 167°
2026-05-03 23:05 26.10371 -79.22066 10010 ft 289 kts 179°
2026-05-03 23:05 26.08372 -79.22053 10016 ft 286 kts 187°
2026-05-03 23:06 26.06429 -79.22420 10017 ft 282 kts 198°
2026-05-03 23:06 26.04548 -79.23021 10024 ft 281 kts 201°
2026-05-03 23:06 26.02673 -79.23648 10032 ft 281 kts 200°
2026-05-03 23:06 26.00794 -79.24258 10026 ft 281 kts 200°
2026-05-03 23:07 25.98912 -79.24867 10028 ft 281 kts 200°
2026-05-03 23:07 25.97053 -79.25447 10022 ft 283 kts 197°
2026-05-03 23:07 25.95097 -79.25765 10013 ft 284 kts 191°
2026-05-03 23:07 25.93136 -79.26043 10016 ft 284 kts 191°
2026-05-03 23:08 25.91169 -79.26311 10015 ft 285 kts 191°
2026-05-03 23:08 25.89206 -79.26577 10016 ft 284 kts 191°
2026-05-03 23:08 25.87242 -79.26846 10016 ft 284 kts 192°
2026-05-03 23:08 25.85300 -79.27225 10014 ft 284 kts 195°
2026-05-03 23:09 25.83359 -79.27679 10016 ft 285 kts 196°
2026-05-03 23:09 25.81417 -79.28132 10015 ft 286 kts 195°
2026-05-03 23:09 25.79456 -79.28514 10015 ft 286 kts 193°
2026-05-03 23:09 25.77520 -79.28868 10014 ft 285 kts 193°
2026-05-03 23:10 25.75749 -79.29729 9959 ft 276 kts 223°
2026-05-03 23:10 25.74702 -79.31462 10002 ft 272 kts 248°
2026-05-03 23:10 25.74217 -79.33485 10012 ft 272 kts 264°
2026-05-03 23:10 25.74346 -79.35579 10019 ft 274 kts 281°
2026-05-03 23:11 25.75055 -79.37550 10034 ft 277 kts 294°
2026-05-03 23:11 25.75923 -79.39458 10030 ft 277 kts 293°
2026-05-03 23:11 25.76704 -79.41406 10030 ft 276 kts 290°
2026-05-03 23:11 25.77437 -79.43371 10031 ft 277 kts 290°
2026-05-03 23:12 25.78200 -79.45340 10022 ft 278 kts 291°
2026-05-03 23:12 25.78979 -79.47301 10027 ft 278 kts 291°
2026-05-03 23:12 25.79741 -79.49238 10028 ft 278 kts 291°
2026-05-03 23:12 25.80507 -79.51203 10022 ft 278 kts 290°
2026-05-03 23:13 25.81273 -79.53168 10024 ft 278 kts 291°
2026-05-03 23:13 25.82043 -79.55136 10025 ft 278 kts 291°
2026-05-03 23:13 25.82810 -79.57100 10028 ft 278 kts 291°
2026-05-03 23:13 25.83578 -79.59067 10024 ft 278 kts 291°
2026-05-03 23:14 25.84257 -79.61062 9995 ft 276 kts 281°
2026-05-03 23:14 25.84289 -79.63164 10007 ft 273 kts 261°
2026-05-03 23:14 25.83654 -79.65141 10010 ft 274 kts 241°
2026-05-03 23:14 25.82417 -79.66746 10013 ft 277 kts 221°
2026-05-03 23:15 25.80739 -79.67754 10012 ft 282 kts 202°
2026-05-03 23:15 25.78777 -79.68018 10010 ft 290 kts 180°
2026-05-03 23:15 25.76819 -79.67425 10007 ft 298 kts 158°
2026-05-03 23:15 25.75176 -79.65997 10004 ft 306 kts 134°
2026-05-03 23:16 25.73859 -79.64136 9975 ft 309 kts 128°
2026-05-03 23:16 25.72870 -79.62024 9903 ft 313 kts 112°
2026-05-03 23:16 25.72653 -79.59650 9574 ft 308 kts 82°
2026-05-03 23:16 25.73475 -79.57521 9183 ft 300 kts 50°
2026-05-03 23:17 25.75056 -79.56090 8860 ft 291 kts 25°
2026-05-03 23:17 25.76974 -79.55499 8376 ft 283 kts 360°
2026-05-03 23:17 25.78860 -79.55797 7853 ft 268 kts 336°
2026-05-03 23:17 25.80423 -79.56814 7350 ft 258 kts 315°
2026-05-03 23:18 25.81501 -79.58324 6863 ft 251 kts 296°
2026-05-03 23:18 25.82298 -79.60033 6411 ft 249 kts 294°
2026-05-03 23:18 25.83094 -79.61733 6024 ft 246 kts 295°
2026-05-03 23:18 25.83881 -79.63400 6035 ft 246 kts 295°
2026-05-03 23:19 25.84672 -79.65087 6004 ft 248 kts 295°
2026-05-03 23:19 25.85466 -79.66783 6003 ft 248 kts 295°
2026-05-03 23:19 25.86263 -79.68484 6003 ft 249 kts 295°
2026-05-03 23:19 25.87061 -79.70188 6002 ft 249 kts 295°
2026-05-03 23:20 25.87860 -79.71892 6001 ft 249 kts 295°
2026-05-03 23:20 25.88658 -79.73597 6002 ft 249 kts 295°
2026-05-03 23:20 25.89457 -79.75301 6004 ft 249 kts 295°
2026-05-03 23:20 25.90251 -79.76998 6001 ft 245 kts 295°
2026-05-03 23:21 25.91028 -79.78660 6005 ft 246 kts 295°
2026-05-03 23:21 25.91816 -79.80347 6007 ft 247 kts 295°
2026-05-03 23:21 25.92608 -79.82041 6007 ft 247 kts 295°
2026-05-03 23:21 25.93399 -79.83733 6007 ft 247 kts 295°
2026-05-03 23:22 25.94980 -79.87122 6006 ft 247 kts 295°
2026-05-03 23:22 25.95770 -79.88814 6003 ft 247 kts 295°
2026-05-03 23:22 25.96561 -79.90508 6003 ft 247 kts 295°
2026-05-03 23:23 25.97350 -79.92201 6002 ft 247 kts 295°
2026-05-03 23:23 25.98142 -79.93899 6002 ft 248 kts 295°
2026-05-03 23:23 25.99006 -79.95560 5961 ft 251 kts 304°
2026-05-03 23:23 26.00172 -79.96996 5996 ft 251 kts 310°
2026-05-03 23:24 26.01355 -79.98418 6004 ft 251 kts 309°
2026-05-03 23:24 26.02518 -79.99859 5995 ft 250 kts 308°
2026-05-03 23:24 26.03662 -80.01282 5992 ft 250 kts 309°
2026-05-03 23:24 26.04826 -80.02719 5994 ft 250 kts 309°
2026-05-03 23:25 26.05989 -80.04155 5994 ft 250 kts 309°
2026-05-03 23:25 26.07158 -80.05600 5994 ft 252 kts 309°
2026-05-03 23:25 26.08329 -80.07047 5992 ft 251 kts 309°
2026-05-03 23:25 26.09495 -80.08490 5991 ft 251 kts 309°
2026-05-03 23:26 26.10663 -80.09934 5989 ft 251 kts 309°
2026-05-03 23:26 26.11811 -80.11352 5977 ft 237 kts 309°
2026-05-03 23:26 26.12894 -80.12690 5976 ft 230 kts 308°
2026-05-03 23:26 26.13960 -80.14015 5984 ft 229 kts 308°
2026-05-03 23:27 26.14814 -80.15448 5945 ft 224 kts 288°
2026-05-03 23:27 26.15036 -80.17139 5988 ft 222 kts 270°
2026-05-03 23:27 26.15033 -80.18867 6007 ft 223 kts 269°
2026-05-03 23:27 26.15039 -80.20593 6007 ft 223 kts 269°
2026-05-03 23:28 26.15050 -80.22320 6001 ft 223 kts 269°
2026-05-03 23:28 26.15058 -80.24045 6003 ft 222 kts 269°
2026-05-03 23:28 26.15065 -80.25762 6002 ft 222 kts 269°
2026-05-03 23:28 26.15072 -80.27481 5999 ft 222 kts 269°
2026-05-03 23:29 26.15079 -80.29197 5999 ft 221 kts 269°
2026-05-03 23:29 26.15086 -80.30907 6000 ft 221 kts 269°
2026-05-03 23:29 26.15096 -80.32629 5994 ft 223 kts 269°
2026-05-03 23:29 26.15116 -80.34351 5996 ft 221 kts 270°
2026-05-03 23:30 26.15137 -80.35977 5981 ft 204 kts 270°
2026-05-03 23:30 26.15159 -80.37547 5563 ft 200 kts 270°
2026-05-03 23:30 26.15180 -80.38992 5107 ft 178 kts 270°
2026-05-03 23:30 26.15196 -80.40351 4655 ft 174 kts 270°
2026-05-03 23:31 26.15210 -80.41747 4234 ft 187 kts 270°
2026-05-03 23:31 26.15218 -80.43210 3853 ft 190 kts 270°
2026-05-03 23:31 26.15218 -80.44688 3497 ft 192 kts 270°
2026-05-03 23:31 26.15218 -80.46178 3149 ft 193 kts 270°
2026-05-03 23:32 26.15214 -80.47657 2996 ft 185 kts 270°
2026-05-03 23:32 26.15209 -80.49118 3004 ft 190 kts 270°
2026-05-03 23:32 26.15196 -80.50576 3002 ft 187 kts 266°
2026-05-03 23:32 26.14609 -80.51839 2836 ft 187 kts 219°
2026-05-03 23:33 26.13387 -80.52136 2776 ft 184 kts 176°
2026-05-03 23:33 26.12144 -80.51899 2983 ft 182 kts 169°
2026-05-03 23:33 26.11128 -80.51085 2968 ft 186 kts 122°
2026-05-03 23:33 26.10616 -80.49752 3031 ft 192 kts 112°
2026-05-03 23:34 26.10124 -80.48379 3028 ft 190 kts 112°
2026-05-03 23:34 26.09628 -80.47013 3015 ft 189 kts 112°
2026-05-03 23:34 26.09133 -80.45650 3007 ft 192 kts 113°
2026-05-03 23:34 26.08642 -80.44300 3001 ft 192 kts 113°
2026-05-03 23:35 26.08145 -80.42912 2985 ft 188 kts 110°
2026-05-03 23:35 26.07944 -80.41484 3028 ft 185 kts 97°
2026-05-03 23:35 26.07765 -80.40035 3391 ft 197 kts 98°
2026-05-03 23:35 26.07563 -80.38428 2855 ft 211 kts 97°
2026-05-03 23:36 26.07494 -80.36906 2811 ft 180 kts 87°
2026-05-03 23:36 26.07474 -80.35675 3293 ft 139 kts 93°
2026-05-03 23:36 26.07423 -80.34614 3806 ft 150 kts 94°
2026-05-03 23:36 26.07359 -80.33373 3813 ft 165 kts 94°
2026-05-03 23:37 26.07344 -80.31985 3166 ft 198 kts 88°
2026-05-03 23:37 26.07418 -80.30460 3030 ft 182 kts 87°
2026-05-03 23:37 26.07406 -80.29050 2548 ft 187 kts 92°
2026-05-03 23:37 26.07369 -80.27631 1840 ft 179 kts 91°
2026-05-03 23:38 26.07457 -80.26289 1458 ft 168 kts 81°
2026-05-03 23:38 26.07580 -80.25040 1180 ft 157 kts 82°
2026-05-03 23:38 26.07658 -80.24243 1030 ft 157 kts 82°
2026-05-03 23:38 26.07724 -80.23050 890 ft 149 kts 86°
2026-05-03 23:39 26.07728 -80.21636 696 ft 132 kts 88°
2026-05-03 23:39 26.07724 -80.20948 612 ft 130 kts 87°
2026-05-03 23:39 26.07719 -80.19657 439 ft 123 kts 87°
2026-05-03 23:39 26.07706 -80.18716 326 ft 120 kts 86°
2026-05-03 23:40 26.07702 -80.18097 237 ft 118 kts 86°
2026-05-03 23:40 26.07700 -80.17172 148 ft 122 kts 88°
2026-05-03 23:40 26.07691 -80.16254 33 ft 113 kts 86°
2026-05-03 23:40 26.07692 -80.15502 12 ft 69 kts 90°
2026-05-03 23:41 26.07690 -80.15192 12 ft 23 kts 88°
2026-05-03 23:41 26.07786 -80.15127 12 ft 15 kts 343°
2026-05-03 23:41 26.07817 -80.15197 12 ft 9 kts 311°
2026-05-03 23:41 26.07871 -80.15211 12 ft 6 kts 336°
2026-05-03 23:42 26.07876 -80.15215 12 ft 0 kts 320°